Location: Gugi
(45.4667°N, 11.1000°E)
Time: 01:40:09
(UTC+00:00)

AQUARIUS - Pass Details

Date: 17 November 2019
Orbit: 650 x 653 km, 98.0° (Epoch: 13 December)

Event Time Altitude Azimuth Distance (km) Brightness Sun altitude
Rises 16:47:46 0° 170° (S) 2,961 7.6 -11.3°
Reaches altitude 10° 16:49:58 10° 172° (S) 2,055 6.8 -11.6°
Maximum altitude 16:54:27 75° 257° (WSW) 681 4.4 -12.4°
Drops below altitude 10° 16:58:58 10° 343° (NNW) 2,070 6.8 -13.2°
Sets 17:01:12 0° 346° (NNW) 2,986 7.6 -13.5°
